Theta_e
318 317 317 318 318 319 319 320 322 323 326 328 328 326 325 327 327 326 325 325 326 328 330 332 334 336 337 336 334 337 338 337 337 338 338 332 337 338 339 337 338 339 339
316 316 317 318 320 321 321 321 321 322 326 325 325 323 322 320 319 318 318 318 319 324 327 327 326 327 334 336 337 335 338 338 339 338 334 335 339 338 339 337 338 338 337
315 316 316 317 319 321 322 320 322 322 323 324 323 320 317 314 311 311 313 314 316 317 316 318 324 328 332 335 339 339 336 335 338 337 336 338 338 336 335 335 336 335 334
315 315 316 317 317 319 321 321 322 321 321 322 320 316 313 311 312 311 310 312 310 310 309 310 317 323 327 329 330 335 339 337 335 336 337 338 334 333 333 333 333 333 333
314 314 316 316 317 318 319 320 320 320 319 318 316 314 312 312 313 312 310 310 311 311 310 309 309 311 316 319 323 325 327 336 338 338 337 334 331 330 331 332 332 332 332
315 313 314 315 316 317 318 319 319 319 319 318 316 313 312 313 314 313 312 312 312 311 310 310 309 309 309 316 323 327 328 334 339 341 337 335 332 333 333 332 331 330 333
314 315 313 313 313 314 316 317 317 317 318 315 314 312 312 312 313 313 312 312 312 312 310 310 309 309 311 315 320 322 322 324 336 341 340 336 335 332 333 331 332 331 331
311 313 314 315 313 313 312 312 313 314 313 314 313 312 311 312 312 313 313 312 312 312 310 310 309 309 310 314 318 321 324 329 336 339 341 339 339 335 335 335 334 331 329
307 309 311 312 312 312 312 312 312 312 311 311 311 311 311 312 312 313 313 312 312 311 310 309 309 310 311 313 318 321 327 328 334 336 336 337 338 335 334 334 331 329 329
306 307 307 308 308 310 309 308 309 312 313 313 312 311 311 312 312 313 313 312 311 311 310 309 309 310 310 312 321 324 326 328 333 333 333 334 334 333 333 333 332 330 328
305 305 306 306 307 307 307 307 307 307 310 311 312 312 312 313 313 313 312 312 311 310 310 309 310 310 310 315 322 323 322 325 330 331 331 331 331 331 331 331 331 331 328
303 303 304 305 305 306 306 306 307 307 307 308 309 309 310 311 311 311 311 311 311 310 309 309 309 309 312 316 316 317 322 328 329 328 328 329 329 330 331 330 330 329 329
302 303 303 304 304 304 304 305 304 305 306 306 306 307 308 307 309 311 311 310 310 310 310 309 308 310 313 313 315 319 325 327 328 327 327 326 328 329 328 327 327 328 327
301 301 301 302 302 303 304 304 304 305 305 305 306 306 307 308 307 309 309 310 309 309 309 308 309 313 317 316 317 320 324 329 327 326 325 326 325 325 325 326 326 326 325
301 301 301 302 303 304 304 304 304 305 305 306 307 307 308 308 307 308 309 309 309 309 308 312 316 316 314 316 319 322 325 328 327 327 325 323 323 324 325 325 325 326 325
301 302 302 303 304 304 304 305 305 305 306 305 306 306 307 308 308 308 308 309 308 308 314 318 318 317 316 317 321 324 326 327 326 325 324 323 323 324 324 325 325 325 325
301 302 303 303 304 304 305 305 306 305 305 305 306 306 307 307 307 308 308 308 309 312 316 317 318 319 319 322 325 325 325 325 327 325 323 324 324 324 323 323 325 325 324
300 301 301 302 303 303 304 304 305 305 306 306 306 306 306 306 307 308 309 309 308 311 314 316 316 320 322 325 326 326 325 325 324 323 322 323 323 322 323 323 323 324 325
300 300 301 302 302 303 304 305 305 306 306 306 308 306 306 307 307 308 309 310 313 315 315 315 315 319 326 327 326 325 325 324 323 323 322 322 322 321 321 322 323 324 323
299 299 300 302 302 303 304 306 306 306 306 307 307 307 305 304 305 304 305 309 310 312 314 316 320 327 328 327 326 324 324 325 322 323 322 322 322 322 322 323 322 323 323
298 298 298 298 299 300 304 303 306 306 307 307 308 309 307 306 307 308 308 308 310 312 314 320 327 327 325 324 324 324 324 323 323 323 323 323 322 322 322 323 322 323 322
296 297 298 301 311 309 309 308 308 308 308 308 309 310 309 308 308 308 309 311 314 315 323 326 325 324 324 324 325 324 323 323 324 324 324 324 323 322 322 323 323 323 323
295 298 304 316 311 310 309 309 309 309 309 308 309 309 308 310 311 313 314 318 323 323 324 324 324 323 324 324 326 325 324 324 325 325 324 323 322 322 322 323 323 323 323
300 308 322 320 320 315 312 312 312 312 312 313 313 310 310 313 315 320 322 323 324 324 324 324 323 323 324 326 325 325 325 325 325 324 323 322 322 323 323 322 322 320 318
321 322 320 318 317 318 318 317 316 318 319 318 317 317 317 317 316 319 320 321 322 323 323 323 324 324 325 325 325 325 324 324 323 324 324 323 323 323 322 320 317 314 312
316 315 315 314 313 312 312 312 311 311 311 311 311 311 311 312 313 315 317 319 321 321 323 324 325 325 326 325 324 324 323 323 323 324 324 323 322 320 318 316 313 309 305
Wind_Speed
23 25 24 21 19 17 15 14 14 13 13 13 13 12 11 11 9 6 2 2 4 5 8 11 15 19 20 26 26 27 24 23 10 10 13 29 29 27 23 26 18 18 18
25 23 24 19 20 21 20 18 17 18 17 17 16 13 9 6 4 4 4 5 6 7 9 11 15 20 22 21 24 22 20 23 20 9 18 31 34 27 19 20 16 17 17
27 30 33 30 28 26 25 22 23 23 21 19 18 15 12 9 7 6 7 6 6 7 10 13 17 16 20 18 20 21 20 22 18 13 20 25 25 21 17 17 15 16 17
14 24 32 33 31 33 32 28 28 28 25 24 22 19 14 11 8 6 6 6 4 6 10 13 17 19 20 19 20 18 18 17 14 22 23 20 21 17 18 18 14 17 19
17 18 24 32 32 35 36 33 32 33 31 29 27 23 19 15 12 9 9 9 8 8 10 14 16 21 23 24 24 28 19 19 19 18 18 14 13 11 13 16 17 19 18
19 23 22 21 24 31 32 34 34 36 36 36 33 29 25 22 18 15 13 14 13 12 12 15 19 23 23 25 24 22 21 23 20 18 19 17 20 19 18 19 15 8 4
24 20 14 13 18 24 26 28 34 35 38 38 35 32 30 27 24 22 20 19 17 15 15 18 21 23 22 25 27 26 25 25 26 26 25 23 19 24 24 17 20 15 9
20 23 22 18 17 17 19 24 28 31 35 35 37 36 34 32 29 27 26 23 21 19 18 19 21 25 26 23 26 28 26 24 26 27 31 27 30 22 24 20 24 19 10
21 20 22 21 18 18 17 16 15 19 25 28 30 37 39 38 34 31 29 27 25 23 21 21 21 23 28 24 27 26 24 27 27 25 24 31 28 19 18 20 15 10 5
22 22 25 26 24 19 16 15 14 17 20 21 23 27 31 35 36 34 31 31 28 24 24 25 22 25 29 25 26 25 23 26 25 24 19 20 20 19 17 22 20 13 5
24 24 24 26 26 24 23 23 22 22 20 21 24 28 30 30 31 31 30 32 31 26 25 26 27 29 30 25 23 28 28 31 26 21 20 19 17 19 19 16 15 18 10
27 28 26 26 27 23 23 25 25 26 25 21 22 25 30 33 33 33 31 31 31 26 25 28 31 32 30 28 30 31 32 25 20 20 23 19 19 19 15 13 13 13 11
27 26 26 25 25 24 24 22 20 23 23 23 22 22 24 29 35 33 30 31 29 25 29 30 34 32 28 29 31 26 22 20 20 18 17 18 20 16 14 12 9 8 6
29 31 29 27 27 28 28 27 25 24 23 23 24 24 22 23 29 34 34 31 26 24 30 32 35 30 28 27 27 23 20 18 22 17 14 18 17 18 15 12 10 11 9
28 27 26 26 26 25 27 27 27 30 29 26 25 24 22 21 23 30 33 33 30 25 30 23 18 18 18 18 16 16 17 19 19 20 19 19 17 18 15 12 11 12 6
25 24 25 24 24 24 24 25 33 37 34 37 36 31 26 29 23 25 29 30 28 24 19 17 16 15 18 17 16 18 19 19 19 21 20 19 17 16 16 13 11 9 7
27 27 26 25 24 23 24 22 10 27 39 42 41 40 37 27 28 28 29 30 29 29 20 16 15 17 20 20 20 20 18 23 22 22 22 17 17 14 15 13 10 10 9
30 32 29 26 26 27 28 26 26 19 12 22 39 42 40 40 36 31 28 24 18 26 19 18 16 21 24 23 21 20 21 20 22 20 18 18 19 17 15 13 12 7 8
26 26 26 26 31 31 30 31 29 27 23 22 21 27 41 36 36 33 27 24 20 18 19 19 24 27 28 26 23 22 25 25 24 19 18 18 18 15 13 12 10 8 7
27 28 27 27 28 27 23 24 26 24 21 21 20 19 22 27 21 19 25 26 22 22 20 20 26 28 27 25 24 25 25 26 20 19 18 18 16 14 14 13 11 9 6
22 23 25 25 24 26 26 25 21 23 20 19 17 21 25 27 25 22 20 21 23 22 23 26 24 23 23 24 26 25 26 23 23 20 20 16 18 16 13 12 10 9 10
23 22 19 16 2 9 15 21 22 22 21 18 14 18 22 18 19 21 23 23 22 24 23 25 24 25 25 28 29 27 25 25 26 23 22 20 17 15 13 11 11 10 11
19 19 14 13 12 16 19 20 19 18 17 15 16 15 20 18 18 19 21 20 22 25 27 27 26 25 27 28 32 33 31 28 28 26 23 19 16 14 14 13 12 12 11
11 8 17 19 14 12 13 15 17 19 18 17 18 16 18 16 18 20 23 27 27 24 25 26 28 28 30 32 32 30 30 27 24 23 24 23 19 17 16 14 12 10 11
12 18 19 19 17 17 19 20 17 16 17 20 19 19 21 23 24 26 27 28 28 28 27 29 30 31 31 31 28 27 27 25 25 23 23 22 21 18 18 17 16 15 17
21 21 21 20 19 20 19 20 22 23 22 21 22 24 27 26 26 27 29 30 31 30 30 33 32 32 32 30 30 30 28 26 24 23 23 22 22 21 20 20 19 20 22
Wind_Direction
220 215 214 210 202 199 201 218 223 222 217 204 198 186 182 170 166 165 161 322 338 315 289 280 285 286 284 276 271 260 241 232 249 264 296 299 297 286 258 256 251 237 236
235 239 226 231 221 213 206 214 221 228 218 218 208 202 202 203 224 252 254 261 273 278 287 296 297 303 296 293 280 265 254 258 231 248 293 282 266 268 269 256 236 230 231
245 242 252 216 230 227 220 217 222 226 222 216 207 208 214 226 231 242 248 255 264 283 293 299 299 301 297 295 291 267 250 256 259 260 268 257 279 262 245 233 221 216 218
254 246 251 243 234 236 228 221 226 226 219 211 216 223 231 221 225 235 240 246 272 318 330 310 296 290 291 295 299 296 285 275 262 255 251 260 253 243 235 223 208 214 219
265 245 247 251 243 237 236 227 224 226 220 222 222 222 225 223 228 227 221 225 250 280 308 317 316 297 284 284 285 286 298 275 235 232 245 247 227 211 216 221 208 220 228
294 272 257 246 243 243 234 234 232 227 231 224 225 227 218 223 232 234 232 234 243 258 285 303 313 309 302 287 280 283 282 277 260 238 248 242 239 227 224 212 190 192 231
283 277 272 264 247 239 234 231 235 234 229 230 234 230 227 226 234 238 239 239 241 255 278 296 307 310 301 285 285 290 286 279 272 256 244 238 239 229 221 203 203 209 210
287 278 267 256 273 264 248 234 236 234 232 233 239 240 240 237 237 242 243 241 245 253 269 287 302 312 305 287 283 287 289 285 274 261 253 243 256 253 231 225 219 216 215
286 281 272 266 255 250 249 249 246 247 246 242 239 242 239 242 245 248 248 244 242 252 269 282 296 307 312 293 280 284 286 285 268 268 264 251 252 237 222 212 197 170 201
276 273 273 270 262 247 246 258 259 251 257 258 257 251 251 252 254 254 256 249 243 250 268 281 293 303 314 298 281 279 283 281 268 258 246 228 217 204 205 217 214 179 161
273 271 273 271 263 254 257 264 262 258 249 248 255 259 258 257 260 257 259 249 239 248 264 280 292 303 308 293 280 284 284 290 262 244 212 193 187 189 187 195 208 214 191
271 271 268 263 258 253 251 250 248 245 245 240 238 243 247 254 255 258 256 247 237 244 257 277 289 297 295 282 282 288 297 280 225 193 179 167 178 175 174 187 203 211 222
266 261 259 261 258 255 248 239 230 232 233 244 243 241 239 239 244 247 247 237 230 243 262 276 288 291 282 280 281 290 285 203 181 168 160 167 184 169 166 168 177 175 176
270 266 264 259 258 257 253 248 242 237 236 236 238 242 238 229 223 230 223 221 227 238 262 276 286 281 278 272 274 285 202 198 177 165 152 171 167 157 159 164 149 148 150
262 262 259 256 251 248 243 241 239 238 231 227 227 229 230 228 213 214 216 218 221 231 264 270 261 268 268 259 246 248 200 192 173 170 170 167 155 148 160 171 162 159 136
260 256 252 249 247 245 244 245 243 241 239 238 238 235 235 237 233 223 225 229 235 241 234 231 242 241 247 243 202 184 187 188 169 166 166 165 152 160 166 168 165 157 165
258 256 255 250 245 241 238 235 235 236 238 240 238 237 232 226 229 229 232 233 229 219 209 221 238 239 235 230 193 175 177 183 183 169 164 158 160 164 166 165 156 182 181
258 256 254 252 249 244 240 237 235 231 224 224 234 233 233 235 231 232 226 232 213 214 216 220 233 240 228 222 187 174 168 174 176 174 163 161 172 171 165 168 182 184 185
267 262 260 253 249 244 235 234 227 224 221 221 212 219 225 227 227 225 230 216 211 209 222 230 239 237 217 203 185 170 162 161 169 163 158 162 170 170 165 184 174 177 167
270 265 260 260 261 257 243 227 217 211 213 209 211 197 198 203 209 212 217 227 233 234 230 236 234 205 193 180 167 157 157 162 163 158 156 164 167 162 175 171 167 156 150
283 281 270 267 265 261 242 211 202 186 195 193 194 185 189 190 199 205 212 219 222 227 233 234 185 171 166 157 154 154 154 154 161 158 163 166 168 169 160 141 143 135 146
282 281 277 273 45 51 65 133 156 163 172 173 178 176 182 175 183 198 211 215 219 229 197 164 160 159 160 161 163 158 154 156 160 164 167 167 163 157 152 139 137 143 157
277 284 293 123 112 102 102 110 126 144 154 159 171 155 174 181 185 196 200 200 169 147 144 153 151 157 168 168 169 168 161 160 164 169 163 159 157 155 152 146 148 153 158
285 304 69 68 82 118 122 125 138 149 159 165 167 171 177 184 185 180 148 140 148 151 160 163 167 166 165 165 169 164 157 156 160 163 163 158 152 145 144 151 154 151 135
79 64 61 59 65 69 80 96 107 111 136 142 142 144 131 120 113 118 126 132 138 145 147 154 160 159 156 156 153 144 147 150 150 154 153 147 142 144 146 141 134 125 121
63 60 65 60 56 60 64 70 74 78 83 89 96 97 103 106 111 117 123 132 134 138 141 143 143 143 142 139 137 143 146 145 143 146 147 148 144 137 135 131 127 120 117